sat.trackr.live / text

‹ back to catalog

PREFIRE-1

NORAD 59965 · 2024-108A

PAYLOAD ACTIVE UNKNOWN

§ Identity

Operator
Country
US
Launch date
2024-06-05
Launch site
RLLB
Launch vehicle
Mass (kg)
RCS (m²)

External: N2YO · Heavens-Above · Gunter

§ Orbital elements

Epoch: 2026-09-22T21:27:49.489920Z

Period
94.46 min
Inclination
97.5426°
Eccentricity
0.0009605
Mean motion
15.24452426 rev/d
Perigee alt
485.8 km
Apogee alt
499.0 km
Semi-major
6,870.6 km
B*
1.4595e-4
RAAN
61.1969°
Arg perigee
256.7956°
Mean anomaly
103.2210°
Rev number
12,747

§ Raw data

PREFIRE-11 59965U 24108A   26265.89432280  .00003512  00000+0  14595-3 0  99932 59965  97.5426  61.1969 0009605 256.7956 103.2210 15.24452426127476

JSON: /api/v1/satellites/59965 · /tle

For live sub-satellite position, see the globe view (requires WebGL).

§ Visibility from observer

Set your observer location to see the next 7 days of passes ≥ 10°. The values pass through the URL so the page stays shareable.

No JS? Fill the form by hand. The geolocation button needs JavaScript.

§ Radio — SatNOGS DB

ModeDescriptionDownlinkUplink
BPSK S-band telemetry 2.213 GHz
BPSK S-band telemetry 2.212 GHz

2 transmitters · refreshed weekly from db.satnogs.org